Total_Precipitation_Accumulation
0.84 0.75 0.69 0.64 0.57 0.51 0.53 0.58 0.63 0.62 0.61 0.64 0.65 0.58 0.58 0.52 0.45 0.43 0.39 0.35 0.34 0.46 0.71 0.98 1.22 1.48 1.68 1.74 1.75 1.62 1.52 1.38 1.24 1.14 1.11 1.12 1.21 1.30 1.37 1.35 1.41 1.44 1.42
0.92 0.87 0.82 0.78 0.71 0.63 0.61 0.64 0.69 0.70 0.65 0.62 0.59 0.57 0.56 0.50 0.44 0.43 0.43 0.42 0.38 0.40 0.58 0.81 1.03 1.28 1.59 1.85 1.97 1.89 1.70 1.60 1.54 1.46 1.32 1.26 1.27 1.34 1.43 1.49 1.35 1.30 1.29
0.99 0.88 0.84 0.82 0.80 0.78 0.75 0.71 0.68 0.75 0.71 0.64 0.60 0.59 0.58 0.53 0.48 0.47 0.49 0.47 0.46 0.43 0.50 0.69 0.88 1.07 1.31 1.69 2.06 2.20 1.98 1.84 1.82 1.79 1.62 1.48 1.38 1.41 1.43 1.53 1.56 1.48 1.38
1.07 1.04 0.94 0.88 0.88 0.91 0.90 0.86 0.75 0.72 0.72 0.69 0.63 0.61 0.61 0.61 0.54 0.52 0.55 0.51 0.50 0.48 0.47 0.57 0.71 0.86 1.12 1.41 1.74 2.11 2.21 2.10 2.03 2.02 1.92 1.78 1.60 1.54 1.54 1.59 1.69 1.72 1.65
1.05 1.06 1.02 1.00 1.04 1.05 1.01 0.99 0.90 0.85 0.80 0.77 0.77 0.73 0.71 0.71 0.69 0.64 0.64 0.61 0.57 0.53 0.50 0.51 0.60 0.66 0.84 1.13 1.45 1.82 2.13 2.20 2.14 2.11 2.05 1.98 1.84 1.68 1.66 1.70 1.74 1.85 1.89
1.06 1.11 1.05 1.04 1.08 1.10 1.10 1.15 1.13 1.02 0.93 0.91 0.95 0.91 0.88 0.85 0.77 0.68 0.66 0.67 0.64 0.58 0.60 0.60 0.59 0.56 0.63 0.83 1.14 1.51 1.91 2.15 2.23 2.23 2.22 2.19 2.10 1.97 1.81 1.78 1.78 1.89 2.07
1.08 1.15 1.12 1.07 1.08 1.05 0.99 0.98 1.10 1.14 1.08 1.03 1.04 0.98 0.89 0.85 0.78 0.69 0.70 0.77 0.82 0.81 0.79 0.80 0.79 0.69 0.65 0.74 0.84 1.07 1.45 1.88 2.20 2.31 2.31 2.31 2.32 2.28 2.16 2.01 1.96 2.02 2.18
1.11 1.13 1.16 1.12 1.03 1.01 0.98 0.90 0.91 1.02 1.04 1.03 1.08 1.10 0.97 0.87 0.75 0.64 0.64 0.70 0.78 0.88 0.93 0.91 0.92 0.93 0.82 0.74 0.66 0.71 0.90 1.31 1.84 2.30 2.46 2.51 2.63 2.67 2.57 2.38 2.26 2.27 2.37
1.07 1.05 1.13 1.19 1.12 1.02 0.94 0.89 0.88 0.89 0.95 0.95 0.95 1.17 1.16 0.91 0.67 0.53 0.53 0.57 0.61 0.66 0.72 0.77 0.83 0.89 0.92 0.87 0.74 0.62 0.63 0.88 1.32 1.90 2.45 2.76 2.98 3.21 3.19 2.90 2.67 2.55 2.52
1.14 1.10 1.14 1.19 1.22 1.11 0.97 0.93 0.91 0.89 0.91 0.95 0.92 0.90 0.93 0.89 0.91 0.72 0.50 0.48 0.49 0.51 0.55 0.60 0.64 0.69 0.79 0.86 0.86 0.84 0.79 0.80 1.11 1.51 2.05 2.62 3.15 3.64 3.94 3.67 3.25 2.90 2.74
1.24 1.18 1.19 1.19 1.20 1.15 1.05 0.99 0.96 0.95 0.92 0.92 0.93 0.90 0.82 0.73 0.74 0.84 0.63 0.45 0.46 0.45 0.47 0.54 0.59 0.63 0.67 0.75 0.81 0.87 0.93 0.93 1.11 1.38 1.67 2.14 2.77 3.54 4.13 4.18 3.83 3.44 3.12
1.44 1.30 1.24 1.19 1.16 1.12 1.08 1.04 1.02 1.00 0.97 0.92 0.91 0.90 0.90 0.89 0.77 0.79 0.72 0.50 0.45 0.43 0.46 0.51 0.60 0.68 0.74 0.82 0.88 1.04 1.05 1.07 1.18 1.36 1.44 1.71 2.15 2.85 3.73 4.23 4.15 3.89 3.59
1.49 1.37 1.24 1.17 1.15 1.13 1.08 1.06 1.08 1.08 1.08 1.07 1.03 0.96 0.89 0.81 0.78 0.86 0.90 0.69 0.52 0.42 0.43 0.48 0.53 0.65 0.77 0.86 0.93 1.04 1.02 1.02 1.09 1.23 1.28 1.31 1.49 1.98 2.82 3.76 4.29 4.29 4.12
1.55 1.44 1.40 1.34 1.24 1.18 1.18 1.16 1.11 1.09 1.10 1.10 1.05 1.03 1.02 0.89 0.84 0.89 0.99 1.06 0.95 0.64 0.49 0.43 0.43 0.54 0.71 0.82 0.94 1.08 1.00 1.02 1.00 1.11 1.21 1.22 1.23 1.39 1.87 2.73 3.66 4.33 4.43
1.60 1.55 1.46 1.43 1.38 1.34 1.35 1.35 1.27 1.16 1.14 1.10 1.04 1.03 1.05 0.98 0.92 0.88 0.90 1.08 1.36 1.18 0.68 0.43 0.42 0.47 0.62 0.78 0.94 0.98 0.97 1.08 1.10 1.08 1.15 1.21 1.24 1.29 1.46 1.84 2.58 3.48 4.23
1.64 1.61 1.56 1.46 1.37 1.34 1.37 1.46 1.42 1.27 1.22 1.17 1.12 1.08 1.06 1.02 0.98 0.94 0.94 0.96 1.12 1.31 1.00 0.48 0.42 0.46 0.59 0.74 0.91 0.92 0.91 1.06 1.09 1.11 1.11 1.14 1.22 1.31 1.41 1.57 1.92 2.62 3.42
1.64 1.62 1.55 1.49 1.41 1.38 1.38 1.41 1.40 1.40 1.37 1.29 1.25 1.23 1.12 1.06 1.09 1.05 1.03 1.02 1.03 1.19 1.22 0.62 0.44 0.50 0.66 0.78 0.86 0.88 0.88 0.92 0.94 1.06 1.10 1.12 1.13 1.19 1.32 1.46 1.63 2.01 2.68
1.38 1.51 1.58 1.57 1.50 1.41 1.42 1.48 1.45 1.44 1.45 1.41 1.36 1.33 1.24 1.21 1.19 1.14 1.18 1.15 1.07 1.07 1.21 0.96 0.60 0.56 0.65 0.75 0.82 0.89 0.91 0.92 0.91 1.01 1.04 1.12 1.19 1.21 1.25 1.36 1.50 1.68 2.05
1.44 1.45 1.53 1.56 1.53 1.53 1.51 1.50 1.52 1.51 1.50 1.46 1.45 1.48 1.43 1.41 1.38 1.31 1.31 1.31 1.24 1.14 1.18 1.19 0.86 0.68 0.70 0.79 0.93 0.98 1.00 1.05 1.03 1.09 1.09 1.11 1.23 1.31 1.30 1.36 1.48 1.58 1.68
1.62 1.66 1.60 1.59 1.59 1.63 1.83 1.86 1.74 1.67 1.61 1.55 1.53 1.55 1.57 1.59 1.56 1.56 1.61 1.58 1.56 1.55 1.47 1.42 1.17 0.94 0.89 0.89 1.03 1.11 1.10 1.08 1.12 1.10 1.17 1.14 1.19 1.28 1.31 1.31 1.34 1.36 1.50
1.76 1.76 1.78 1.71 1.69 1.80 2.10 2.25 2.03 1.88 1.79 1.71 1.62 1.60 1.60 1.73 1.88 2.02 2.13 2.03 1.94 1.98 1.91 1.81 1.59 1.32 1.15 1.14 1.21 1.18 1.23 1.16 1.19 1.19 1.17 1.13 1.09 1.07 1.15 1.29 1.39 1.42 1.46
1.87 1.86 1.78 1.73 1.66 1.77 2.22 2.35 2.06 1.83 1.68 1.67 1.65 1.57 1.58 1.69 1.77 1.92 2.08 2.07 2.05 2.19 2.26 2.13 1.91 1.64 1.31 1.19 1.28 1.45 1.56 1.61 1.52 1.28 1.29 1.30 1.21 1.21 1.20 1.23 1.43 1.49 1.53
1.77 1.78 1.75 1.68 1.61 1.63 2.11 2.26 2.04 1.67 1.50 1.49 1.46 1.43 1.43 1.50 1.64 1.54 1.70 1.77 1.78 1.89 2.05 2.14 2.16 1.80 1.51 1.39 1.64 1.85 1.86 1.84 1.56 1.36 1.53 1.70 1.55 1.48 1.39 1.42 1.58 1.49 1.55
1.62 1.61 1.56 1.50 1.46 1.54 1.99 2.23 2.07 1.55 1.39 1.37 1.34 1.32 1.31 1.30 1.40 1.59 1.66 1.62 1.50 1.48 1.65 1.79 1.94 1.81 1.70 1.77 2.08 2.37 2.44 2.45 2.12 1.76 1.71 1.98 1.80 1.73 1.66 1.60 1.65 1.52 1.52
1.37 1.42 1.41 1.37 1.34 1.38 1.74 2.09 2.01 1.56 1.50 1.41 1.35 1.36 1.36 1.26 1.46 1.72 1.75 1.67 1.47 1.35 1.45 1.69 1.89 1.99 2.10 2.26 2.52 2.88 2.99 3.08 2.89 2.38 2.05 2.09 1.97 1.89 1.90 1.87 1.82 1.73 1.61
1.22 1.24 1.30 1.32 1.31 1.33 1.56 1.90 2.01 1.63 1.56 1.47 1.39 1.42 1.61 1.56 1.62 1.71 1.69 1.75 1.71 1.41 1.25 1.34 1.46 1.59 1.69 1.89 2.28 2.51 2.71 2.96 2.90 2.71 2.22 2.14 2.16 2.16 2.38 2.07 1.80 1.67 1.62